Погода в Аспиндзе

Погода в Аспиндзе : погода сейчас, прогноз погоды и архив. Всё, что Вы хотите узнать о погоде в Аспиндзе!

Поиск расширенной информации на нашем сайте:

Другие новости

Новости СМИ2

Главная страница сайта

Новости сайта

03.07.2017

Напоминаем, что на нашем специализированном сайте Метеоцентр.Азия вы можете получить высокодетализированные автоматические прогнозы погоды по пунктам России, СНГ и мира в авиационном формате (включающие направление и скорость ветра, видимость, явления погоды, количество и форму облачности, нижнюю и верхнюю границу облачности).


Погода в Аспиндзе - сегодня

Время (UTC), дата Ветер
(°,м/с) 
Видим.   Явления Облачность Т
(°С)
Тd
(°С)
f(%) Тe
(°С)
Pmin
(гПа)
dP
(гПа)
Po
(мм)
O2
(г/м3)
Тmin Tmax R s Состояние
почвы
15 21.09.17 140 (ЮВ) 20000 м  {гроза}  8/8 1000 м 
[Sc]
+29.5 +12.8 36 +30  1004.2  -0.7      +33.2       
18 21.09.17 тихо ()   4000 м  {гроза}  10/10 1000 м 
[Sc]
+23.2 +10.3 44 +27  1008.8  676  249    +33.2       
21 21.09.17 тихо ()   4000 м    3/3 1000 м 
[Sc]
+20.6 +9.8 50 +24  1010.5  0.6  676  252           
00 22.09.17 тихо ()   4000 м    ясно 
+14 +7 63 +14  1013.6  0.3  677  258           
03 22.09.17 тихо ()   20000 м    ясно 
+11.8 +6.8 71 +12  1015.5  0.9  677  260           
06 22.09.17 тихо ()   20000 м    ясно 
+19.4 +11.9 62 +26  1012.5  0.2  677  252  +11         
09 22.09.17 тихо ()   20000 м    ясно 
+28 +15.7 47 +28  1005.3  -3.4             
12 22.09.17 270 (З) 20000 м  в посл. час гроза{ливн. осадки}  6/6 1000 м 
[Sc]
+29.5 +14.1 39 +30  1004.2  -0.5             
18 22.09.17 230 (ЮЗ) 4000 м    8/8 1000 м 
[Sc]
+20.2 +15.9 76 +33  1012.9  678  251    +28.9  0.1     
21 22.09.17 тихо ()   4000 м    6/6 1000 м 
[Sc]
+16.4 +14.5 89 +27  1015.2  0.7  679  255           
00 23.09.17 тихо ()   4000 м    3/3 1000 м 
[Sc]
+14.6 +13.7 94 +24  1016.5  0.2  679  257           
03 23.09.17 тихо ()   20000 м    10/10 1000 м 
[Sc]
+13 +12.4 96 +20  1018.1  0.7  680  259           
06 23.09.17 тихо ()   20000 м    8/8 1000 м 
[Sc]
+17.6 +13.5 77 +26  1014.1  -1.8  678  254  +12.8         
09 23.09.17 тихо ()   20000 м    3/3 1000 м средняя, верхняя 
[Cu med, cong|Ac lent|Ci fib]
+25.1 +15.8 56 +38  1009.9  -1.1  677  246           
12 23.09.17 070 (В) 20000 м    4/4 1000 м средняя 
[Cu med, cong|Ac lent]
+30 +15.4 41 +42  1005.5  -2.3  676  242           
15 23.09.17 050 (СВ) 20000 м    6/6 1000 м 
[Sc]
+24 +13.3 51 +32  1010  1.9  677  248    +30.6       
18 23.09.17 тихо ()   4000 м    10/10 1000 м 
[Sc]
+20.2 +15.5 74 +33  1015.1  3.3  680  251    +30.6       
21 23.09.17 090 (В) 4000 м    10/10 1000 м 
[Sc]
+17 +12.5 75 +24  1017.2  0.6  680  255           
00 24.09.17 тихо ()   4000 м    9/9 1000 м 
[Sc]
+16.2 +12.9 81 +24  1019.2  1.3  681  256           
03 24.09.17 тихо ()   20000 м    5/5 1000 м 
[Sc]
+14.8 +12.8 88 +22  1020.6  0.8  682  258           
06 24.09.17 180 (Ю) 20000 м    3/0 средняя 
[Ac lent]
+22.8 +15.1 62 +35  1017.4  678  249  +14.5         
09 24.09.17 230 (ЮЗ) 20000 м    4/4 1000 м средняя, верхняя 
[Cu med, cong|Ac lent|Ci fib]
+26.1 +13.8 47 +35  1013.2  -2.7  680  247           
12 24.09.17 270 (З) 20000 м    3/3 1000 м средняя, верхняя 
[Cu med, cong|Ac lent|Ci fib]
+27.4 +14.7 46 +38  1011.9  -0.7  679  246           
15 24.09.17 320 (СЗ) 20000 м    1/1 1000 м 
[Sc]
+21.6 +12.6 57 +29  1015.3  679  251    +28.8       
18 24.09.17 тихо ()   4000 м    ясно 
+17.4 +13.1 76 +25  1018.2  1.1  681  255    +28.8       
Время (UTC), дата Ветер
(°,м/с) 
Видим.   Явления Облачность Т
(°С)
Тd
(°С)
f(%) Тe
(°С)
Pmin
(гПа)
dP
(гПа)
Po
(мм)
O2
(г/м3)
Тmin Tmax R s Состояние
почвы

Для получения пояснительной информации подведите курсор к названию столбца.

ПОГОДА в Аспиндзе - архив

Всё, что Вы хотите узнать о погоде в Аспиндзе - удобно и подробно!

Выберите нужную дату (начиная с 1 января 2015* года) и нажмите кнопку "Найти".
Будут отображены архивные сводки погоды по пункту Аспиндза, начиная с указанной даты.


Отображать данные в формате CSV (для использования в таблицах Excel)


Внимание! Наш архив погоды предназначен исключительно для личного некоммерческого использования в познавательных целях. Если Вам необходимы официальные справки о состоянии погоды (для производственных, юридических, коммерческих и т.п. целей), обращайтесь в органы Росгидромета.

*Примечание: данная дата относится к архиву по метеостанциям СССР (Россия, СНГ, Балтия).
Архив по метеостанциям Зарубежной Европы и Азии (кроме Китая) хранится 10 дней, по другим регионам земного шара (Китай, Африка, Америка, Австралия, Океания) - 1 день.

Аспиндза - район местоположения метеостанции


Название, широта, долгота, высота метеостанции:
Аспиндза 41.6°ш. 43.2°д. 983 м над ур. моря [Грузия]

Дополнительная информация

В oтличие oт бoльшинства пoгoдных сайтoв мы публикуем пoдрoбную метеoинфoрмацию в детальнoм прoфессиoнальнoм фoрмате.

Характеристики температуры и влажнoсти вoздуха измеряются на высoте 2 м в тени вдали oт зданий и деревьев.
Скoрoсть ветра измеряется на высoте 10 м (на урoвне рoста челoвека скoрoсть ветра ниже в 1.5-2 раза). Если метеoстанция нахoдится в гoрoде или в лесу, тo скoрoсть ветра занижена на 2-4 м/с пo сравнению с oткрытым местoм. Скoрoсть ветра над акватoриями крупных рек и oзёр, а также на вершинах хoлмoв на 2-5 м/с выше, чем в oбычных услoвиях.
Атмoсфернoе давление в разных тoчках местнoсти мoжет значительнo oтличаться oт давления на метеoстанции, в зависимoсти oт услoвий рельефа (при пoдъёме на 10 м давление пoнижается примернo на 1 мм рт.ст.).